This is the latest recevied weather packets stored in our database for station/object HA9OZD-21. If no packets are shown the sender has not sent any weather packets the latest 10 day(s).
| Time | Temp. | Humidity | Pressure | Rain* | Wind** | Luminosity | Snow |
|---|---|---|---|---|---|---|---|
| 1777528894 | 1.67° C | 87% | 1024.3 hPa | - | - | - | - |
| 1777525294 | 0.56° C | 97% | 1024.1 hPa | - | - | - | - |
| 1777521694 | -1.11° C | 100% | 1023.6 hPa | - | - | - | - |
| 1777518094 | -1.11° C | 100% | 1023.4 hPa | - | - | - | - |
| 1777514494 | -1.11° C | 100% | 1023.2 hPa | - | - | - | - |
| 1777510894 | -0.56° C | 100% | 1023.1 hPa | - | - | - | - |
| 1777507293 | 0° C | 98% | 1023 hPa | - | - | - | - |
| 1777504595 | 0° C | 94% | 1023.3 hPa | - | - | - | - |
| 1777500995 | 0.56° C | 87% | 1023.2 hPa | - | - | - | - |
| 1777497395 | 1.11° C | 70% | 1022.8 hPa | - | - | - | - |
| 1777493795 | 2.22° C | 46% | 1022.2 hPa | - | - | - | - |
| 1777490195 | 3.33° C | 43% | 1021.8 hPa | - | - | - | - |
| 1777486594 | 3.89° C | 42% | 1021.2 hPa | - | - | - | - |
| 1777485697 | 3.89° C | 42% | 1020.9 hPa | - | - | - | - |
| 1777482097 | 5° C | 40% | 1020.2 hPa | - | - | - | - |
| 1777478496 | 5.56° C | 39% | 1020.2 hPa | - | - | - | - |
| 1777474896 | 6.67° C | 40% | 1020.1 hPa | - | - | - | - |
| 1777471296 | 6.67° C | 42% | 1019.8 hPa | - | - | - | - |
| 1777467696 | 7.22° C | 41% | 1019.8 hPa | - | - | - | - |
| 1777464096 | 7.22° C | 42% | 1020 hPa | - | - | - | - |
| 1777460496 | 8.33° C | 42% | 1019.9 hPa | - | - | - | - |
| 1777456896 | 7.78° C | 42% | 1020.2 hPa | - | - | - | - |
| 1777453296 | 7.78° C | 42% | 1020.3 hPa | - | - | - | - |
| 1777449695 | 7.22° C | 40% | 1020.2 hPa | - | - | - | - |
| 1777446095 | 7.22° C | 47% | 1020.3 hPa | - | - | - | - |
* Rain since midnight (hover to see other rain measurements)
** Current wind speed in m/s (hover to see current wind gust speed)